LASARSAT (62391 NORAD) Tracking and Keplerian Element Data

This shows tracking and keplerian element data for the satellite.

Feedback or suggestion? Click here.




ElementValue
Catalog62391
NameLASARSAT
Epoch Orbit665
Epoch Day33.27885581
Epoch Year2025
RAAN130.3474
Inclination44.9937
Eccentricity0.0004374
Argument of Perigee329.7481
Mean Anonmoly30.3146
Mean Motion15.1986859
Decay Rate0.00029243
L11 62391U 24247Q 25033.27885581 .00029243 00000+0 13459-2 0 9990
L22 62391 44.9937 130.3474 0004374 329.7481 30.3146 15.19868590 6659



Live tracking and technical data element details for LASARSAT (NORAD 62391). LASARSAT can be tracked NOW for your location showing map with azimuth and elevation plus other details from your city location.







IsCatalogInMostPopularTable: catalog: 62391, numindb: 11
Update: records affected: 1



GetName: 62391 LASARSAT

Hit Count: updated at: Mon, 19 May 2025 03:14:14 GMT